Volver al catálogo

STARLINK-6076

ActivoComunicacionesVLEO
NORAD 56100·PAYLOAD·🇺🇸 United States

Lanzado Mar 29, 2023 desde Cape Canaveral Space Force Station

Loading…

Próximos Pases (próximas 24 horas)

TLE

ActualizadoSource: CelesTrak SupGP

Época: Sep 14, 2026, 20:44 UTC

1 56100C 23046H   26257.86437500 -.00018592  00000+0 -67346-3 0  2574
2 56100  43.0007 172.8559 0001466 261.0395 235.8111 15.27584118    12

Sigue STARLINK-6076 en tiempo real con AllMySat

Download on the App Store